Wind_Speed
23 22 19 15 13 10 11 15 16 17 19 23 28 29 29 29 28 28 28 29 29 29 29 29 29 30 31 31 32 33 34 34 35 36 37 36 35 35 34 33 33 33 32 30 29 29 27 23 22 22 21 20 19 19 20 21 22 21 20 20 21 21 22 23 23 23 21 20 19 19 19 19 20 20 21 21 20 20 20 21 21 22 23 23 22
22 20 17 15 13 11 12 13 16 18 21 25 28 30 31 31 30 31 31 30 30 30 30 30 30 31 32 33 34 36 37 36 36 37 39 39 37 37 36 35 34 34 33 32 29 28 26 24 23 23 21 17 18 20 20 21 21 22 21 21 23 22 22 23 24 24 23 22 21 20 19 19 19 20 20 21 20 20 20 20 20 21 22 23 22
19 17 15 14 14 15 14 13 16 19 24 28 30 31 31 32 32 33 33 33 32 32 32 32 32 32 33 35 36 38 39 38 38 38 39 40 39 38 38 37 36 35 34 33 31 29 26 24 23 24 22 18 19 21 21 22 21 21 21 22 24 24 23 23 24 25 25 24 23 22 21 20 20 20 20 20 20 20 20 19 19 20 21 22 22
16 14 14 14 15 16 15 17 20 23 27 30 31 32 33 33 34 35 35 35 35 35 35 35 34 35 36 37 39 40 41 41 40 39 40 41 41 40 38 38 37 35 35 34 33 30 28 25 24 25 24 22 21 20 20 21 21 20 20 20 22 23 23 23 23 25 26 25 24 24 23 21 20 20 19 20 20 20 20 19 18 18 20 21 22
14 14 14 14 15 15 17 21 24 26 30 32 32 34 35 36 37 38 38 37 37 38 38 38 39 40 40 41 41 41 42 42 43 42 42 41 42 41 39 37 36 35 35 35 34 33 30 26 24 25 26 26 26 23 21 21 20 19 18 19 20 21 23 23 23 24 26 26 26 25 25 23 21 20 19 19 19 20 20 19 18 17 18 19 21
15 15 14 15 16 16 21 25 26 28 31 32 33 35 36 38 39 40 40 40 40 40 40 41 41 42 43 43 43 43 43 43 44 45 45 43 42 41 40 37 36 35 35 34 35 34 32 28 26 25 26 27 29 29 27 25 24 23 21 20 21 22 22 24 24 24 25 26 26 26 26 25 24 22 20 19 19 19 19 19 18 17 17 18 19
15 15 15 15 16 19 24 26 26 28 30 32 34 35 36 38 39 39 40 41 42 42 42 43 43 43 44 44 45 45 44 45 45 45 46 45 44 42 40 38 36 35 35 35 35 35 33 31 28 25 25 26 28 30 31 30 29 29 27 23 22 21 21 22 23 23 24 25 26 26 27 26 25 23 21 19 18 19 19 19 18 17 16 17 18
16 16 16 15 18 23 26 25 25 27 29 32 33 33 35 36 37 37 38 39 40 41 41 42 43 43 44 45 45 45 46 46 45 45 45 45 44 42 41 39 37 36 36 36 35 35 34 32 29 26 24 24 26 29 31 31 29 29 29 26 22 21 21 21 22 24 24 25 25 26 27 27 26 25 23 21 18 18 19 18 18 17 16 16 18
16 18 18 18 21 25 25 24 25 27 29 31 32 32 33 34 35 35 36 37 37 38 38 39 39 40 42 43 43 44 44 44 45 45 45 44 43 43 41 40 38 37 36 36 36 35 33 32 30 27 25 24 25 27 29 32 32 31 30 28 24 22 23 23 22 23 25 25 25 26 26 26 26 26 25 23 20 18 18 18 18 17 16 16 17
15 18 18 18 23 26 24 23 25 28 30 32 32 33 33 33 33 34 35 36 36 35 35 36 37 38 39 40 41 41 42 43 43 44 44 44 43 43 42 41 40 39 38 37 37 35 34 33 31 28 27 26 25 25 26 28 31 32 32 30 28 25 23 22 22 23 24 25 26 26 26 26 26 26 25 24 22 19 18 18 18 17 16 16 16
16 18 19 19 24 27 24 25 28 30 32 33 34 34 33 34 34 35 36 36 36 35 35 36 37 37 38 40 41 41 41 42 42 43 43 43 43 42 42 41 40 40 39 38 37 36 35 34 32 30 29 28 28 26 25 25 26 29 32 32 31 30 27 23 21 22 24 25 25 26 25 25 25 26 26 25 24 21 19 18 18 18 16 16 16
19 22 25 25 26 28 26 27 31 32 34 35 36 35 35 35 36 36 37 37 37 37 38 39 38 38 38 40 42 42 42 42 42 42 42 42 42 42 41 41 40 40 40 40 39 37 36 36 34 33 32 31 31 30 29 26 25 26 29 32 33 33 32 30 26 23 23 24 26 26 26 25 25 26 26 26 25 23 20 18 18 18 17 16 16
25 29 33 32 27 30 30 31 34 35 36 37 37 36 36 37 37 37 38 39 39 40 41 41 40 40 40 41 43 44 44 43 43 43 42 42 42 41 41 41 41 41 41 41 41 39 38 37 36 35 34 33 33 33 32 28 26 25 26 31 34 35 35 33 31 28 25 23 24 26 26 26 26 26 26 26 26 24 22 20 19 19 18 17 16
30 34 37 35 32 32 34 36 38 39 39 38 37 36 37 37 37 38 39 40 42 42 43 42 42 43 44 44 45 46 46 45 44 44 43 43 42 41 41 41 41 41 42 42 42 40 38 38 37 36 35 35 35 35 33 30 27 26 25 27 32 35 36 37 37 35 31 26 24 24 25 27 27 26 26 26 26 26 24 22 20 19 19 18 17
31 34 37 37 37 36 39 42 42 41 40 38 37 36 37 37 37 39 40 41 43 44 44 43 43 46 48 49 48 48 47 47 46 45 45 44 43 42 41 41 40 40 41 42 42 41 39 38 37 37 37 37 37 36 36 33 29 27 26 27 30 33 36 40 41 38 36 31 27 26 25 25 27 27 27 27 27 26 26 24 22 21 20 18 17
33 36 39 40 42 41 43 48 45 42 39 37 37 37 37 38 38 39 40 42 43 44 42 42 44 49 51 51 49 48 47 47 47 46 46 46 45 44 43 42 41 40 39 39 40 40 39 39 38 38 37 38 39 39 38 37 33 31 31 31 31 32 34 39 41 39 38 35 32 30 27 24 25 26 28 30 28 27 26 25 24 23 21 20 18
38 39 42 43 43 44 46 50 47 42 39 38 38 38 38 39 39 40 41 42 43 43 42 41 46 51 50 46 45 45 45 47 48 47 46 46 47 46 44 42 41 40 38 38 38 38 38 38 38 37 37 37 39 40 40 39 37 35 35 35 32 30 31 35 38 39 38 36 35 34 31 28 26 25 27 31 31 28 26 25 25 25 23 21 19
42 41 42 43 44 45 49 52 48 44 41 40 40 40 40 40 40 41 42 42 43 44 44 45 49 52 50 44 41 42 43 45 48 49 48 46 47 48 46 43 41 39 38 37 37 37 37 37 37 36 36 37 38 40 42 42 41 39 38 38 35 32 30 31 35 38 39 37 37 37 36 34 31 28 26 28 31 30 27 25 26 27 25 23 21
45 44 44 45 46 48 52 54 50 45 43 43 42 42 42 42 42 43 42 43 44 46 47 49 51 52 51 48 45 44 44 45 46 49 51 49 47 46 46 45 42 40 38 37 37 36 36 36 36 36 36 36 37 39 42 43 43 42 41 41 39 36 34 33 34 36 39 39 38 39 39 39 36 33 29 27 29 31 29 27 28 29 27 25 23
45 45 45 46 49 52 56 56 51 47 45 44 44 44 44 44 44 44 43 44 46 48 50 52 53 54 54 53 51 49 48 48 48 49 50 52 51 47 45 45 44 42 40 39 38 37 37 37 36 36 37 37 37 38 40 42 44 44 43 44 43 40 38 37 36 35 37 39 40 41 41 41 40 37 34 29 27 29 29 30 31 31 29 28 25
44 43 45 48 52 56 59 57 52 49 47 46 46 45 45 45 45 45 44 46 48 50 52 54 55 56 57 56 55 53 52 52 52 51 50 51 52 51 48 46 46 44 42 41 41 39 39 38 38 38 37 38 38 37 38 40 42 44 45 45 46 44 42 40 39 37 36 38 41 43 42 43 42 40 39 35 31 30 28 29 32 33 32 30 27
44 44 47 52 56 59 60 56 52 51 50 49 48 47 46 46 46 45 46 48 50 52 53 54 55 57 58 59 58 56 55 55 55 53 52 50 50 51 49 48 48 47 45 44 43 42 41 40 39 39 39 39 39 38 37 37 39 42 44 47 48 48 46 44 43 42 41 38 40 43 45 45 44 44 43 40 37 35 30 29 31 33 34 32 29
45 47 51 56 59 60 59 55 53 53 53 51 50 49 48 47 47 47 49 51 53 54 54 56 57 58 59 60 60 59 58 59 58 56 53 52 50 49 49 48 48 48 47 46 45 44 43 42 41 41 41 41 40 39 37 34 35 38 41 44 46 48 49 48 47 46 45 42 39 41 45 47 46 46 44 42 40 39 36 31 30 32 34 34 31
48 52 56 58 60 60 58 57 56 56 54 52 51 49 49 49 49 51 52 54 55 55 56 58 59 61 62 63 62 61 61 61 60 57 55 53 52 50 49 48 48 49 48 48 47 46 45 43 43 43 43 43 43 41 38 36 36 37 38 38 38 41 47 49 50 49 47 45 41 40 45 48 48 47 46 42 40 41 40 36 32 31 32 33 32
53 56 58 59 60 60 59 59 58 56 53 51 50 50 50 52 53 54 55 55 56 58 59 61 63 65 66 65 65 64 65 63 61 59 56 54 53 51 49 49 48 49 50 50 49 49 48 45 44 44 44 45 46 44 42 41 40 38 37 37 35 37 41 45 49 51 50 48 45 43 45 48 49 49 47 44 42 42 43 41 37 33 31 31 30
57 59 60 60 61 61 60 59 57 55 53 52 52 53 54 56 56 56 57 58 59 61 63 65 67 67 67 67 67 68 68 65 62 59 57 55 54 52 49 49 48 49 50 51 51 51 50 48 47 44 43 44 46 46 46 45 43 41 39 40 41 40 41 42 45 49 52 51 50 48 47 48 50 50 49 48 46 45 45 44 42 38 34 33 33
59 60 61 62 62 62 60 59 57 55 55 55 56 58 59 59 59 59 60 62 64 66 67 68 68 68 68 69 70 70 68 65 62 60 59 57 56 54 50 48 49 49 50 52 53 53 52 51 50 48 45 45 46 46 46 47 47 45 45 46 47 45 44 44 44 46 49 51 51 50 50 50 51 51 51 51 49 48 48 46 45 43 39 37 37
61 62 63 64 63 61 60 58 57 58 58 60 61 61 62 61 61 62 64 67 68 69 69 69 69 69 71 72 71 69 67 65 63 62 61 60 58 56 52 49 48 49 50 52 54 55 53 52 53 52 49 47 47 47 47 48 48 48 49 50 51 49 47 45 44 45 48 50 50 50 50 50 52 52 53 54 53 50 50 48 47 46 44 41 41
62 64 64 64 63 61 61 60 61 62 62 63 63 63 63 64 65 67 69 70 70 69 69 70 71 73 73 73 71 69 67 66 65 64 63 62 60 57 54 50 48 48 49 51 54 56 55 55 55 55 53 51 49 49 49 49 49 50 50 52 53 52 51 47 45 45 47 50 51 51 51 51 52 53 53 55 56 54 52 50 48 47 47 44 43
63 64 64 64 64 64 64 64 65 64 64 64 65 65 66 68 70 71 71 70 69 69 71 72 73 74 73 72 70 69 68 67 67 66 65 64 62 59 56 52 49 48 49 50 53 56 55 55 58 57 56 55 53 52 52 51 51 51 52 53 54 54 54 53 50 48 47 48 50 51 52 53 53 53 54 55 57 56 54 53 50 48 46 45 43
64 65 66 66 66 66 66 66 66 65 65 66 67 69 71 72 72 71 70 69 70 71 72 73 73 73 71 70 70 70 69 69 68 67 66 65 63 60 58 55 52 50 49 49 52 56 57 55 58 59 58 58 58 56 55 54 53 53 53 54 55 56 56 56 56 54 51 50 50 50 50 52 53 54 56 57 58 58 57 55 53 50 48 46 45
66 67 67 67 67 67 67 67 67 67 68 70 72 73 73 72 71 70 70 70 71 72 72 73 73 71 70 70 71 71 71 70 69 68 67 65 63 62 60 58 55 52 51 49 49 55 58 56 57 60 60 59 60 61 59 58 57 56 55 56 57 58 58 57 58 59 58 55 55 54 52 51 52 55 57 58 59 60 60 59 56 54 51 48 45
67 67 67 67 68 68 68 69 70 71 73 74 73 72 72 72 71 71 70 70 71 72 73 73 72 71 71 71 71 72 71 71 70 68 67 65 64 63 62 61 60 57 55 52 50 52 56 58 57 59 61 60 61 63 62 62 61 60 58 58 59 59 60 60 60 60 61 61 58 57 56 54 53 55 58 59 60 61 62 61 60 58 55 51 47
67 67 68 68 69 70 71 72 73 74 74 73 72 71 71 72 71 70 69 70 72 73 73 72 71 71 71 72 72 72 72 71 70 68 66 65 65 65 64 64 63 62 60 58 55 53 55 59 59 58 60 61 61 63 63 63 64 64 63 62 62 61 62 62 62 62 63 65 63 60 59 59 56 55 57 60 61 62 62 61 61 61 58 54 49
67 68 69 71 72 73 74 74 74 73 71 71 71 71 71 70 69 69 70 72 73 74 73 72 71 71 72 73 73 72 72 71 70 68 67 67 66 66 66 66 66 65 64 62 60 57 56 59 61 61 60 61 62 63 63 63 64 66 66 66 64 64 64 64 64 65 65 67 68 66 64 62 60 56 56 59 61 62 63 63 61 61 60 57 52
70 71 72 73 74 74 74 73 71 70 70 70 70 70 69 69 69 71 73 74 75 74 73 72 72 73 73 73 73 72 71 70 69 70 69 69 69 69 69 69 68 68 68 66 64 61 59 59 61 63 63 62 63 64 64 63 64 66 68 68 68 66 66 66 66 66 67 68 69 70 69 67 64 60 57 58 61 63 64 65 64 63 62 60 56
72 72 72 72 72 71 70 69 69 69 69 69 69 69 70 71 72 74 75 75 74 73 73 73 74 74 74 74 73 72 71 70 70 71 71 70 70 70 69 69 69 69 69 69 68 65 62 60 61 63 64 64 64 65 66 64 64 66 67 69 69 69 68 69 68 68 68 69 69 70 72 72 70 66 61 59 61 63 64 65 65 65 64 64 62
69 69 69 69 68 67 67 67 67 68 68 68 70 72 73 73 74 74 74 73 73 73 74 75 75 75 75 75 74 73 72 72 72 71 71 70 70 70 69 69 69 69 69 68 67 66 65 63 62 62 64 65 65 66 68 67 66 66 67 68 70 71 71 70 70 70 70 71 71 70 71 72 71 69 66 61 60 63 64 63 65 66 66 66 65
67 66 66 66 66 66 66 67 67 68 69 70 72 73 73 73 73 72 72 73 74 74 75 76 77 77 77 76 75 74 73 73 73 72 71 71 70 70 70 69 69 68 67 66 65 65 64 64 65 65 65 66 66 66 68 69 69 68 68 68 69 71 72 71 72 72 72 71 72 71 71 72 71 69 67 64 61 62 64 63 64 65 66 66 65
64 64 64 63 64 65 65 66 67 68 69 70 71 72 72 72 72 72 73 74 75 76 77 78 79 79 78 77 76 76 75 75 74 73 72 72 72 72 71 69 67 65 64 64 63 64 64 65 66 67 68 69 70 69 69 70 70 70 70 69 69 72 73 72 72 73 73 72 72 72 72 72 71 69 68 65 62 61 63 63 63 65 67 67 65
60 61 61 61 61 62 62 64 64 65 66 67 68 70 71 72 73 74 76 76 78 79 80 81 81 80 79 78 77 77 77 76 76 75 75 74 74 72 69 67 65 64 63 63 63 64 65 66 68 69 70 71 73 73 72 71 70 71 71 70 69 71 73 73 73 74 74 74 73 72 73 73 72 71 70 67 64 63 64 64 64 64 67 69 67
57 57 58 58 59 60 61 62 63 64 65 67 69 71 72 74 76 77 77 79 80 81 82 82 81 80 79 79 79 79 79 79 79 79 79 77 73 70 66 64 62 62 62 63 64 65 66 67 69 70 72 73 74 74 73 73 71 70 70 70 69 70 72 73 74 75 75 74 73 73 73 73 73 72 71 70 68 66 64 65 65 65 66 68 68
55 56 56 57 58 59 60 61 62 64 66 68 70 72 74 76 77 78 80 81 82 83 82 82 80 80 79 79 80 80 81 82 83 82 80 76 72 68 66 64 63 62 62 63 64 66 67 68 70 72 73 74 76 76 76 75 74 72 70 68 68 68 70 71 74 77 77 74 73 72 72 73 73 73 72 71 70 68 66 66 65 64 64 66 67
54 54 55 57 58 59 60 62 64 67 69 71 73 74 76 77 79 80 82 83 84 84 83 82 81 80 80 80 81 82 83 84 83 81 78 74 71 69 68 68 67 67 67 67 66 67 67 67 68 70 71 72 74 75 76 76 75 73 71 69 68 67 67 68 71 76 78 74 70 71 72 73 73 73 73 72 71 70 68 67 65 63 63 64 65
54 55 57 59 61 62 64 66 68 70 72 73 75 76 78 80 81 83 84 85 86 85 83 81 80 80 80 81 82 83 84 84 82 78 75 73 71 71 71 72 73 73 72 70 69 67 65 63 62 63 64 65 66 69 71 72 71 71 69 68 68 67 66 66 67 73 78 73 67 68 71 73 73 73 74 73 72 72 69 67 66 64 63 63 64
57 59 61 63 64 66 68 69 71 72 74 75 77 78 80 82 84 85 86 87 86 84 82 80 80 80 81 82 84 85 84 82 79 76 75 74 73 74 75 76 76 74 72 69 67 65 63 60 58 57 56 57 58 61 64 65 64 65 65 64 64 63 63 63 63 69 75 72 65 64 69 72 72 72 74 75 74 72 70 68 67 65 64 64 64
60 62 64 65 66 68 69 71 72 74 75 78 80 82 83 84 86 87 87 85 83 81 80 80 80 81 82 84 85 84 82 79 77 75 75 75 76 76 76 75 74 72 69 66 63 61 59 57 55 54 53 52 53 55 57 59 58 59 59 59 59 57 57 58 59 65 72 70 62 61 67 72 72 71 74 76 75 72 70 68 69 68 66 66 66
63 64 66 67 68 70 71 73 75 77 79 81 83 84 85 86 87 86 84 81 80 79 79 80 81 82 83 84 83 81 78 77 76 75 75 77 77 77 75 73 70 68 66 64 60 57 55 53 51 49 48 47 48 50 52 54 55 54 54 53 52 51 51 52 54 60 67 68 61 57 64 71 70 70 74 77 75 72 70 69 71 71 70 69 69
66 67 68 69 71 72 74 76 78 80 81 83 84 85 86 85 84 82 79 78 78 78 79 80 82 83 84 83 80 77 76 75 75 76 77 77 77 75 72 70 67 65 64 61 59 55 53 50 47 45 43 41 41 43 46 49 51 52 50 47 45 46 47 48 50 54 61 65 60 56 62 70 70 70 74 76 75 73 72 72 73 74 73 72 72
69 69 70 72 73 75 76 78 80 81 83 84 85 84 83 81 79 77 76 76 77 78 80 81 82 83 81 79 77 75 75 75 75 77 77 76 74 71 69 66 64 62 60 59 57 55 53 50 47 43 40 37 36 36 38 42 45 47 47 43 40 40 43 46 48 50 55 60 60 58 63 69 71 70 72 74 76 77 77 76 76 76 75 75 75
70 70 72 74 75 77 79 80 82 83 83 83 82 80 78 76 75 74 75 76 78 79 81 82 81 80 77 76 75 74 75 76 77 76 75 73 70 68 65 62 60 58 57 57 56 54 52 50 47 43 39 36 34 32 32 34 38 40 41 40 38 37 40 44 46 47 50 56 59 61 65 68 69 69 70 73 78 80 80 79 78 77 77 77 76
Wind_Direction
294 292 292 286 281 286 282 278 285 295 302 307 312 312 311 309 306 303 302 301 300 300 300 300 299 299 299 297 296 296 298 300 302 302 303 304 304 304 303 303 304 307 310 311 313 314 310 297 281 275 277 282 284 285 284 283 280 278 279 281 281 278 273 272 275 281 286 291 296 302 309 316 321 326 329 333 335 337 342 351 357 358 358 356 352
291 290 290 285 283 293 293 283 285 293 302 309 311 310 309 307 304 303 301 300 299 298 298 298 298 298 297 297 297 298 299 301 301 301 302 302 303 303 303 303 303 304 306 308 309 312 310 298 282 271 269 276 283 287 288 289 286 281 279 280 278 275 272 269 270 275 280 285 291 295 302 309 315 321 325 329 332 332 334 343 353 358 359 359 357
287 288 288 286 289 299 302 299 299 302 308 312 312 311 310 308 306 304 302 301 300 299 298 297 296 296 296 296 297 297 298 299 299 299 300 301 301 301 301 301 301 302 303 304 305 307 308 299 284 273 267 266 272 279 281 285 289 286 281 279 276 273 270 268 268 271 276 281 286 290 295 302 309 315 320 324 328 329 329 335 347 355 358 360 359
283 287 288 288 295 300 306 312 311 312 314 316 317 317 316 314 311 308 306 304 302 300 299 296 295 294 295 295 296 296 296 296 296 296 297 298 299 299 299 299 298 298 299 301 302 303 305 300 286 274 267 261 260 264 267 271 278 282 282 282 279 274 270 268 268 269 272 276 281 286 290 295 301 309 315 319 323 326 327 329 339 349 355 358 359
282 286 285 288 298 302 309 316 315 317 320 322 321 321 320 317 314 311 309 306 303 302 300 298 297 296 296 296 296 296 295 296 296 296 295 296 296 296 296 295 294 294 295 297 299 300 301 299 290 277 268 261 257 257 256 256 263 270 277 284 286 281 273 269 267 268 269 273 277 282 286 289 294 302 309 314 318 321 324 326 331 341 349 354 356
287 281 281 291 302 309 316 320 319 320 323 325 323 323 322 320 316 313 310 307 304 302 300 299 298 297 297 297 296 295 295 295 295 296 296 295 295 295 294 293 291 290 291 293 294 296 297 296 291 282 273 265 259 256 256 257 260 263 267 275 284 285 278 271 267 267 268 270 273 277 281 285 289 295 302 309 313 315 319 323 326 333 341 347 351
297 284 283 294 306 314 320 323 323 322 325 326 325 324 322 320 317 314 312 309 306 303 301 300 299 298 298 297 297 296 295 295 295 295 295 296 295 295 293 292 290 288 288 289 290 292 293 294 291 283 276 271 264 259 258 260 263 265 264 266 276 282 279 274 269 266 267 268 271 273 276 280 285 289 295 302 307 310 314 318 322 326 334 340 345
299 289 285 295 309 318 323 325 324 322 324 324 324 323 321 319 318 317 316 314 311 308 306 304 303 302 301 299 298 297 296 295 295 294 294 294 294 294 292 291 289 287 286 286 286 288 291 293 291 282 274 272 270 265 261 261 264 267 265 262 265 272 274 275 273 270 267 267 268 270 272 275 280 284 289 295 301 306 308 313 318 322 327 333 340
284 283 282 291 310 321 323 323 320 320 322 323 323 322 321 320 319 321 321 320 318 315 314 313 312 310 307 305 303 301 299 297 296 295 294 294 293 292 291 290 289 286 285 284 285 286 288 291 290 283 275 272 271 269 264 261 261 264 265 261 255 261 270 274 276 274 269 267 267 267 269 271 275 279 284 289 294 300 303 306 312 317 321 327 334
263 274 277 288 311 321 320 320 320 321 322 322 322 321 321 321 321 323 324 324 323 322 322 322 321 320 316 313 310 307 304 302 299 297 296 294 293 292 291 290 288 287 285 283 283 284 285 286 286 283 278 273 271 270 267 265 262 259 260 259 252 251 260 268 273 278 274 268 266 266 267 268 271 275 279 283 288 294 299 301 305 310 316 321 327
256 262 266 283 311 318 315 318 319 320 321 320 320 320 320 320 321 323 324 325 324 323 324 324 324 324 322 319 317 314 310 307 303 300 297 295 293 291 290 288 287 287 285 284 282 281 281 281 280 280 277 273 271 270 268 268 267 259 253 253 252 249 248 250 259 271 276 273 270 267 266 267 268 271 274 278 283 288 293 296 299 303 309 315 321
254 255 259 273 306 317 310 313 316 316 318 318 317 317 318 319 320 322 323 323 321 320 320 320 321 322 323 322 320 317 314 310 306 303 300 297 294 292 289 288 286 285 284 283 282 280 280 277 275 276 275 271 269 270 270 267 264 261 254 249 251 251 248 244 245 252 261 270 273 271 269 268 267 268 270 273 277 282 287 292 294 296 301 307 313
246 253 257 263 292 312 308 307 311 313 315 315 315 315 317 319 320 322 323 322 320 318 318 319 320 321 322 322 320 318 315 312 308 304 302 298 296 293 290 288 286 284 282 281 281 280 279 277 274 274 272 266 264 268 271 267 260 259 258 251 249 250 251 250 250 250 250 255 265 269 270 269 267 267 267 269 272 275 281 287 290 291 294 299 305
249 254 255 258 277 300 308 307 308 311 313 313 313 314 316 318 320 322 322 322 320 319 318 319 320 321 321 321 320 317 315 312 309 305 302 300 297 294 291 288 286 284 282 281 280 279 278 276 274 272 269 263 260 263 266 264 259 254 255 255 251 250 252 254 256 256 251 248 253 261 267 269 267 267 267 267 267 269 273 280 285 287 288 291 297
248 251 253 259 269 286 305 308 307 310 311 311 312 313 315 317 319 320 321 322 322 321 321 320 321 322 321 318 317 316 313 311 308 306 303 301 298 296 293 290 287 285 283 281 281 280 278 275 273 270 266 261 257 257 260 260 258 252 250 255 256 254 254 254 256 257 253 248 248 252 258 264 267 268 269 269 267 266 267 273 280 283 283 285 290
245 249 254 263 267 275 296 307 307 309 310 310 311 312 314 316 317 319 320 322 323 324 323 323 324 325 322 317 315 314 312 310 308 306 304 301 299 297 295 293 290 287 285 282 281 280 278 275 273 269 265 261 256 253 255 258 257 252 249 250 253 255 255 253 253 253 251 248 247 248 250 255 261 266 271 271 268 265 264 267 274 278 279 279 283
248 250 255 263 266 271 291 304 307 308 309 309 310 312 313 314 315 317 319 321 323 324 322 321 323 327 326 322 319 318 315 313 310 308 305 303 300 298 296 294 292 290 286 283 281 280 278 276 274 271 266 263 260 255 253 256 255 250 248 250 252 254 255 254 251 249 249 248 249 250 250 251 253 261 270 270 267 264 261 264 269 274 276 275 277
251 251 257 264 266 274 290 301 305 307 308 309 310 310 311 312 313 315 317 320 321 321 319 317 320 326 327 325 324 324 324 321 317 312 308 305 302 299 297 295 292 290 287 284 282 280 279 277 274 272 268 265 264 260 255 255 255 249 246 248 252 253 253 252 251 249 249 249 251 252 251 250 250 255 264 268 268 264 261 264 267 269 271 271 272
253 256 261 266 269 277 290 299 303 305 307 308 309 309 310 311 312 313 315 317 318 318 316 316 317 322 324 323 320 320 323 325 323 319 314 308 304 300 298 296 293 290 288 286 284 282 279 277 274 272 270 267 265 262 258 255 254 251 246 246 249 252 251 249 249 250 250 249 250 252 252 250 249 251 255 260 265 265 264 266 266 265 267 267 267
255 258 262 266 271 279 289 297 300 303 306 308 308 308 308 309 310 312 314 315 315 315 314 314 315 318 321 322 319 314 315 319 322 322 319 312 307 303 299 295 293 291 289 287 286 284 281 278 275 272 270 270 267 264 260 256 254 252 250 249 249 250 250 249 247 248 251 250 249 250 252 251 249 248 249 249 255 259 262 267 267 264 264 263 263
255 258 263 269 274 281 289 294 297 301 306 307 307 306 306 307 309 310 312 312 313 313 313 313 314 316 319 321 321 316 313 314 317 319 320 316 309 304 300 297 293 291 288 287 286 284 282 278 275 272 270 269 269 266 263 259 255 253 253 253 253 251 250 249 247 247 250 251 250 250 252 253 250 247 246 245 245 246 251 262 266 265 261 258 259
257 262 268 273 277 282 288 293 296 301 304 306 305 305 305 306 308 309 310 310 311 311 311 311 313 315 318 319 320 318 314 314 315 315 317 317 311 303 299 297 294 291 288 286 284 283 281 278 275 272 269 267 267 266 265 265 263 260 258 257 256 254 251 250 247 247 251 253 251 250 250 252 250 247 245 246 245 243 243 252 260 262 259 256 255
264 268 271 274 278 284 289 293 296 300 303 304 304 304 305 306 307 308 309 309 309 309 309 310 312 314 317 318 318 316 315 314 314 314 315 316 313 305 298 294 291 289 287 285 284 282 280 278 276 273 269 266 265 264 265 266 267 265 263 262 261 258 254 251 248 247 252 255 253 249 247 247 248 246 246 247 248 247 245 246 252 258 258 256 254
268 271 274 277 280 286 290 293 296 299 301 302 303 303 304 305 306 307 308 308 308 308 308 310 312 314 315 316 316 315 315 314 314 314 314 314 313 308 299 292 289 287 285 283 282 280 278 276 274 273 271 268 265 263 262 261 260 259 260 262 264 264 260 254 249 247 251 254 253 249 245 243 244 245 245 246 247 247 246 244 246 253 258 257 253
269 274 277 280 284 288 291 294 296 298 299 300 301 301 302 304 306 307 307 307 307 307 308 310 312 313 314 314 314 314 314 314 313 313 313 312 312 309 300 292 288 285 284 283 280 278 276 273 270 269 269 268 266 264 262 260 257 254 255 257 257 259 259 257 252 249 248 250 250 249 246 243 243 243 243 243 244 245 245 245 245 246 251 253 249
272 276 280 283 286 289 291 294 296 297 298 298 299 300 302 304 306 306 306 306 306 307 308 310 311 312 313 313 314 314 314 313 313 312 312 311 311 309 301 292 286 283 281 281 279 277 275 273 269 266 264 265 265 265 263 261 257 252 250 251 251 251 254 256 254 250 248 247 247 248 249 247 244 243 242 241 242 243 245 245 244 243 242 242 243
274 278 282 285 287 289 291 293 294 296 297 298 299 301 303 304 305 305 305 305 306 307 308 310 311 311 312 312 313 314 314 313 312 312 311 311 310 308 302 293 286 282 279 278 277 275 274 274 271 267 263 261 262 263 263 262 259 254 249 249 249 249 251 253 253 251 248 246 245 246 248 248 245 242 241 241 241 242 244 244 244 244 242 238 239
275 279 282 284 287 289 291 293 294 295 297 298 300 301 302 303 303 303 304 305 306 308 309 310 310 311 311 312 313 313 313 312 311 311 311 310 309 308 303 295 287 282 280 278 277 275 273 272 271 269 265 262 260 260 260 260 260 257 253 252 251 250 249 251 254 253 251 248 246 247 247 246 245 242 240 240 240 240 242 244 244 245 244 242 240
276 279 282 284 287 289 291 293 295 296 298 299 300 301 301 302 303 304 305 306 307 308 309 309 310 311 311 312 313 313 312 312 311 311 310 310 309 307 303 297 290 284 280 278 278 277 275 273 271 269 266 263 261 259 258 257 257 257 255 253 253 251 248 248 250 251 252 251 249 248 248 246 245 242 239 240 240 239 241 242 243 244 245 245 245
277 280 282 284 287 290 292 294 295 297 298 299 300 300 301 302 303 305 306 307 307 308 309 309 310 311 312 312 312 312 312 311 311 310 310 309 308 306 303 299 293 288 282 278 276 276 275 274 273 271 268 265 262 259 257 255 254 255 254 252 251 250 248 246 244 244 247 251 250 248 248 247 246 242 238 238 238 238 239 240 241 243 243 244 245
278 281 283 286 289 291 293 295 296 297 298 299 300 300 301 303 304 305 306 306 307 308 309 310 311 311 311 312 312 312 311 311 310 309 308 307 306 304 302 299 296 292 286 281 278 276 275 273 273 272 270 268 266 262 259 256 253 252 253 252 251 249 247 246 243 241 243 248 250 249 248 247 245 241 238 237 236 236 237 238 239 240 241 241 241
280 283 285 288 290 292 293 295 296 297 298 299 300 301 302 303 304 305 305 306 307 308 309 310 311 311 311 311 311 311 310 310 309 308 307 306 305 303 301 299 298 295 291 286 281 278 277 274 272 271 270 269 268 266 262 259 255 251 250 251 251 249 247 246 244 242 242 244 247 249 250 247 245 242 239 238 236 235 235 237 238 239 241 240 240
282 284 287 289 291 292 293 294 295 296 297 299 300 301 302 303 304 304 305 307 308 309 310 311 311 311 310 310 310 310 310 309 308 307 306 304 303 302 301 300 299 297 295 291 286 281 279 276 273 270 270 268 267 266 265 262 259 255 251 249 249 249 247 245 243 242 241 241 242 246 249 249 246 243 240 238 237 235 234 236 237 238 240 241 241
284 286 288 289 291 292 293 294 295 296 298 299 300 300 301 303 304 305 306 307 308 309 310 310 310 310 310 310 309 309 308 308 306 305 304 303 302 301 300 299 299 298 296 294 290 285 282 279 276 272 270 268 266 264 263 263 262 260 256 251 249 249 248 246 244 242 241 240 240 241 245 247 247 245 242 237 236 235 233 233 235 237 238 239 239
285 287 289 290 291 292 293 295 296 297 298 299 299 300 301 303 304 305 307 307 308 309 309 309 310 309 309 309 309 308 307 306 305 304 303 302 301 301 300 299 299 298 296 294 291 287 283 281 279 276 272 270 268 265 262 260 260 260 259 256 252 249 249 248 245 243 241 241 240 238 240 244 245 245 243 238 235 234 233 232 233 235 235 235 235
285 287 288 290 291 293 294 295 296 297 298 298 299 300 301 302 304 305 306 307 308 308 308 309 309 309 308 308 308 307 306 305 304 303 303 303 302 302 301 300 299 297 296 294 292 289 285 281 278 276 274 271 269 267 264 260 258 257 257 257 255 252 250 248 247 244 242 241 240 239 238 240 243 244 244 240 235 233 233 233 232 233 234 234 232
286 287 289 291 292 293 294 295 296 297 298 298 298 299 301 303 304 305 306 307 307 308 308 308 308 308 308 308 307 306 305 304 304 304 303 303 302 301 300 298 297 295 294 293 291 289 286 282 278 276 274 271 270 268 266 263 259 257 255 255 255 254 252 250 247 245 243 241 240 240 239 239 240 243 244 242 237 234 233 233 232 232 233 234 233
288 289 291 292 293 293 294 294 295 296 297 297 298 299 301 303 304 305 306 306 307 307 308 308 308 308 308 307 306 305 304 304 304 303 302 301 300 299 298 297 296 295 293 292 290 289 286 284 280 276 274 271 269 267 266 264 261 258 256 254 253 252 251 250 249 246 244 242 240 240 240 239 239 240 241 241 238 235 233 232 232 231 231 234 235
289 290 291 292 292 293 293 294 295 296 296 296 298 299 301 303 304 305 306 306 307 307 307 307 308 308 308 307 306 305 304 304 303 302 301 300 300 300 299 298 297 295 293 291 289 287 285 283 280 277 275 272 269 266 264 263 261 259 256 254 253 252 250 248 248 247 244 242 240 239 239 239 239 238 238 240 238 235 233 231 231 231 231 232 235
290 290 291 292 292 293 293 294 295 296 297 298 299 300 302 303 304 304 305 306 306 307 307 308 308 308 308 307 305 304 304 303 302 302 302 303 302 302 301 299 297 296 293 291 289 286 284 281 279 277 275 274 271 268 265 263 261 259 257 254 253 252 250 247 246 246 244 242 240 238 238 238 238 236 236 238 238 235 233 231 230 231 230 230 232
291 291 292 293 293 294 295 296 297 298 299 300 300 301 302 303 304 305 305 306 307 307 308 309 309 308 307 306 305 304 304 304 305 305 305 304 303 302 301 300 298 296 294 291 289 286 284 281 279 277 276 274 273 271 269 266 263 260 258 255 253 252 252 250 247 244 243 241 239 238 237 236 236 235 234 235 236 235 232 230 229 229 229 229 229
291 292 293 294 295 296 297 297 298 299 299 300 301 301 302 303 304 305 306 307 308 309 309 309 308 307 306 305 305 306 307 308 308 308 307 306 305 303 301 298 296 294 292 290 288 286 284 282 280 278 277 275 274 273 271 269 267 264 261 258 254 252 251 250 249 246 243 240 238 237 236 235 234 233 233 233 235 235 233 231 229 228 228 229 228
292 293 294 296 296 297 297 297 298 298 299 300 301 302 303 304 305 306 307 308 309 310 309 308 307 306 306 306 308 309 310 310 309 309 308 307 306 304 302 299 296 293 291 289 287 285 284 282 280 279 277 276 275 274 273 271 269 267 264 261 257 254 251 249 249 248 245 240 237 236 236 235 233 232 231 231 233 234 233 231 229 227 227 228 227
293 294 295 295 295 296 296 296 297 298 299 300 301 303 304 304 305 306 308 309 309 309 308 306 306 307 308 309 310 310 310 310 310 310 309 308 307 306 304 302 300 297 295 292 290 287 285 283 281 279 278 276 275 274 273 272 270 268 266 263 259 255 252 248 247 248 247 242 237 235 235 234 232 230 229 228 230 233 232 231 229 227 227 227 226
292 293 294 294 294 294 295 296 297 298 299 300 301 302 303 305 306 307 308 308 308 308 307 307 308 309 309 309 310 310 310 310 310 310 310 309 308 307 306 305 303 301 300 298 295 292 290 287 284 281 279 277 276 274 273 272 271 269 267 264 260 256 252 248 245 245 247 243 237 234 234 233 231 229 228 226 227 230 231 230 228 227 227 228 228
291 293 293 293 293 294 295 296 297 298 299 300 302 303 304 305 306 307 307 308 308 308 308 309 309 309 309 310 310 310 310 311 311 311 311 310 309 308 307 306 305 304 302 301 300 298 295 293 290 286 283 280 277 274 273 272 271 269 267 264 261 257 253 248 243 243 245 244 237 232 233 233 230 228 227 225 225 228 230 229 227 227 228 229 229
292 293 294 294 295 296 297 298 298 300 301 302 303 304 305 306 307 307 308 308 308 308 308 309 309 309 310 310 310 310 311 311 311 311 311 310 310 309 308 307 307 306 305 303 302 300 298 296 294 291 288 284 280 277 275 273 271 268 266 264 261 258 254 249 243 240 242 243 237 230 231 232 229 227 226 224 223 224 227 228 227 226 227 228 229
293 295 295 296 297 298 298 299 300 301 303 304 304 305 306 306 307 307 307 307 307 308 308 309 309 309 310 310 310 311 311 312 312 311 311 310 310 310 309 309 309 308 306 305 303 302 300 298 296 293 290 286 283 279 276 274 272 269 266 264 261 258 254 249 243 239 239 240 236 229 229 231 229 226 225 224 221 222 223 225 225 226 227 228 228
295 296 297 297 298 299 300 301 302 303 304 304 305 305 306 306 306 307 307 307 308 308 309 309 309 309 310 310 311 312 312 312 311 311 312 312 311 312 311 311 311 310 309 308 307 306 304 302 300 296 293 288 283 278 275 273 272 270 269 265 261 257 253 247 242 237 235 236 233 228 227 229 228 225 224 223 220 219 220 220 222 224 225 228 229
296 296 297 298 299 300 301 302 302 303 304 304 305 305 306 306 306 306 307 308 308 309 309 309 310 310 311 311 312 312 312 312 312 312 313 313 313 313 313 313 312 312 312 311 310 310 309 308 305 302 299 293 286 279 275 272 271 270 269 267 261 255 250 245 239 234 231 230 228 225 225 226 225 223 223 221 218 217 217 217 219 221 222 225 228
294 295 297 299 300 301 302 302 303 303 304 304 305 305 306 306 306 307 308 308 309 309 309 310 310 311 311 312 312 312 312 313 314 314 314 314 314 314 314 314 314 314 314 313 313 313 312 311 309 307 304 299 292 285 278 274 271 269 268 266 261 252 246 242 237 231 227 226 223 222 223 224 223 221 220 219 217 217 217 217 218 219 220 222 225
Height
10804 10804 10804 10804 10805 10805 10805 10805 10805 10804 10804 10804 10804 10803 10802 10801 10800 10799 10798 10796 10795 10794 10792 10791 10789 10788 10786 10785 10784 10784 10783 10781 10779 10776 10774 10773 10772 10770 10769 10767 10765 10763 10761 10760 10757 10755 10752 10751 10750 10750 10749 10748 10748 10748 10747 10747 10746 10746 10746 10745 10745 10744 10744 10744 10743 10743 10742 10741 10740 10739 10738 10737 10736 10734 10733 10732 10730 10729 10727 10725 10722 10720 10718 10716 10714
10801 10801 10801 10801 10802 10803 10803 10803 10803 10802 10802 10802 10801 10800 10799 10798 10797 10796 10795 10794 10793 10792 10791 10789 10787 10786 10784 10782 10781 10779 10778 10778 10776 10773 10770 10769 10769 10767 10765 10764 10762 10760 10758 10757 10755 10753 10751 10749 10748 10747 10746 10746 10745 10745 10745 10744 10744 10743 10743 10743 10742 10742 10741 10741 10741 10740 10740 10739 10738 10737 10736 10736 10734 10733 10732 10731 10729 10728 10726 10724 10722 10720 10718 10715 10713
10798 10798 10798 10799 10799 10800 10800 10800 10800 10800 10799 10798 10797 10796 10795 10794 10793 10793 10792 10791 10790 10789 10788 10787 10785 10783 10782 10780 10778 10776 10775 10774 10773 10771 10768 10765 10764 10763 10761 10760 10758 10756 10755 10753 10752 10750 10748 10747 10745 10744 10743 10743 10742 10742 10742 10741 10741 10740 10740 10740 10739 10739 10739 10739 10738 10738 10738 10737 10736 10736 10735 10734 10733 10732 10731 10729 10728 10727 10726 10724 10722 10719 10717 10715 10713
10795 10796 10796 10796 10797 10797 10797 10796 10796 10796 10795 10794 10793 10792 10791 10790 10789 10788 10788 10787 10786 10785 10784 10783 10782 10780 10779 10777 10775 10773 10771 10770 10769 10768 10766 10762 10760 10760 10758 10756 10754 10753 10751 10750 10748 10747 10745 10744 10742 10741 10740 10740 10739 10738 10738 10738 10738 10737 10737 10736 10736 10736 10736 10736 10736 10736 10735 10735 10734 10733 10733 10732 10731 10730 10729 10728 10727 10726 10725 10723 10721 10719 10717 10715 10713
10793 10793 10793 10794 10794 10794 10793 10792 10792 10791 10790 10789 10789 10788 10787 10786 10785 10784 10783 10782 10781 10780 10779 10778 10777 10776 10774 10773 10771 10769 10767 10765 10764 10763 10762 10760 10757 10756 10755 10753 10751 10749 10748 10746 10744 10743 10742 10741 10740 10738 10737 10737 10736 10736 10735 10735 10735 10734 10734 10733 10733 10733 10733 10732 10733 10733 10733 10732 10732 10731 10730 10730 10729 10729 10728 10727 10726 10725 10724 10722 10720 10718 10716 10714 10712
10790 10790 10790 10790 10790 10790 10789 10788 10787 10787 10786 10786 10785 10784 10783 10782 10781 10780 10779 10778 10777 10776 10775 10774 10772 10771 10769 10768 10767 10765 10764 10761 10759 10757 10756 10755 10754 10752 10751 10749 10747 10745 10744 10743 10741 10739 10738 10737 10736 10735 10734 10733 10733 10732 10732 10732 10732 10731 10731 10731 10730 10730 10730 10729 10729 10730 10730 10730 10729 10729 10728 10727 10727 10727 10726 10725 10724 10723 10722 10721 10719 10718 10716 10714 10712
10787 10786 10787 10787 10787 10786 10785 10785 10784 10783 10783 10782 10781 10780 10779 10779 10778 10777 10775 10774 10773 10772 10770 10769 10768 10767 10765 10763 10762 10760 10759 10757 10755 10753 10751 10749 10748 10747 10746 10744 10743 10741 10740 10739 10737 10736 10734 10733 10733 10732 10731 10730 10729 10729 10728 10728 10728 10728 10728 10728 10727 10727 10726 10726 10726 10726 10726 10727 10727 10726 10726 10725 10724 10724 10724 10723 10722 10722 10721 10720 10718 10717 10715 10713 10711
10784 10783 10783 10783 10783 10783 10782 10781 10781 10781 10780 10779 10778 10777 10776 10775 10774 10774 10772 10771 10769 10768 10766 10765 10763 10762 10760 10758 10757 10755 10754 10752 10751 10749 10747 10745 10743 10742 10741 10740 10739 10737 10736 10734 10733 10732 10730 10729 10728 10728 10727 10727 10726 10725 10725 10725 10724 10725 10725 10725 10724 10724 10723 10723 10723 10723 10723 10723 10723 10723 10723 10722 10722 10721 10721 10721 10721 10720 10719 10718 10717 10716 10714 10712 10711
10781 10780 10780 10780 10780 10780 10779 10779 10779 10778 10777 10776 10776 10775 10774 10772 10771 10770 10769 10768 10766 10764 10762 10761 10759 10757 10755 10754 10752 10751 10749 10747 10745 10744 10742 10741 10739 10737 10736 10735 10734 10733 10731 10730 10728 10728 10727 10725 10724 10723 10723 10723 10722 10722 10721 10721 10721 10721 10721 10721 10721 10720 10720 10720 10720 10720 10719 10720 10720 10720 10720 10720 10719 10719 10719 10719 10718 10718 10717 10716 10716 10714 10713 10711 10710
10778 10777 10777 10777 10777 10777 10776 10776 10776 10775 10775 10774 10773 10772 10770 10769 10768 10766 10765 10764 10762 10760 10758 10756 10755 10753 10751 10749 10747 10746 10744 10742 10740 10739 10737 10736 10734 10733 10731 10730 10729 10727 10726 10725 10724 10723 10723 10722 10720 10719 10719 10719 10718 10718 10717 10717 10717 10717 10717 10717 10717 10717 10716 10717 10717 10716 10716 10716 10716 10716 10717 10717 10716 10716 10716 10716 10716 10715 10715 10714 10714 10713 10712 10710 10709
10776 10775 10774 10774 10774 10774 10774 10774 10773 10772 10772 10771 10770 10768 10767 10765 10764 10762 10761 10759 10757 10755 10754 10752 10751 10749 10747 10745 10743 10741 10739 10737 10736 10734 10732 10731 10730 10728 10727 10726 10724 10722 10721 10719 10719 10718 10718 10717 10717 10716 10716 10715 10714 10714 10714 10714 10713 10713 10713 10713 10713 10713 10712 10712 10712 10713 10713 10713 10713 10713 10713 10713 10713 10713 10713 10713 10713 10713 10713 10712 10712 10711 10710 10709 10707
10772 10772 10771 10771 10771 10771 10771 10771 10770 10769 10768 10767 10766 10765 10763 10761 10760 10759 10757 10755 10754 10752 10750 10748 10747 10746 10744 10741 10739 10737 10735 10733 10731 10729 10728 10726 10725 10723 10722 10721 10720 10718 10716 10714 10713 10713 10713 10712 10712 10712 10711 10711 10710 10709 10709 10709 10709 10708 10708 10709 10709 10709 10708 10708 10708 10708 10709 10709 10709 10710 10710 10710 10710 10710 10710 10710 10710 10710 10710 10710 10710 10709 10708 10707 10706
10770 10769 10769 10769 10769 10768 10768 10768 10767 10766 10765 10764 10763 10761 10760 10758 10756 10755 10753 10752 10751 10749 10747 10745 10743 10742 10741 10739 10736 10733 10731 10730 10727 10725 10723 10721 10720 10719 10717 10716 10715 10713 10711 10709 10708 10708 10708 10707 10707 10707 10706 10706 10705 10705 10705 10705 10704 10704 10704 10704 10705 10705 10704 10704 10704 10704 10705 10705 10705 10706 10706 10706 10706 10706 10706 10707 10707 10707 10707 10707 10707 10707 10706 10706 10704
10768 10768 10767 10767 10766 10766 10766 10765 10764 10763 10761 10760 10759 10758 10756 10754 10752 10750 10749 10748 10747 10746 10744 10742 10740 10738 10737 10736 10734 10730 10727 10725 10723 10720 10718 10717 10715 10714 10713 10711 10710 10708 10706 10704 10702 10702 10703 10702 10702 10702 10701 10700 10700 10700 10700 10700 10700 10700 10700 10700 10701 10701 10701 10701 10701 10701 10701 10701 10701 10702 10702 10703 10703 10703 10703 10703 10703 10704 10704 10704 10704 10704 10704 10704 10703
10767 10766 10765 10765 10764 10763 10762 10762 10761 10759 10758 10757 10756 10755 10753 10751 10749 10747 10745 10744 10743 10742 10740 10739 10737 10735 10733 10730 10729 10727 10723 10720 10719 10716 10713 10712 10710 10708 10707 10706 10705 10704 10702 10700 10698 10697 10697 10696 10696 10697 10696 10695 10695 10695 10695 10695 10696 10695 10696 10696 10696 10697 10698 10696 10696 10697 10697 10697 10697 10697 10698 10698 10699 10699 10699 10699 10700 10700 10701 10701 10701 10701 10702 10701 10701
10764 10763 10762 10762 10761 10760 10759 10759 10757 10756 10755 10754 10752 10751 10750 10748 10746 10744 10742 10740 10739 10738 10737 10736 10734 10732 10729 10726 10723 10722 10719 10716 10713 10712 10709 10706 10704 10703 10701 10700 10699 10699 10697 10696 10694 10692 10691 10691 10690 10690 10690 10690 10689 10689 10689 10689 10690 10690 10691 10691 10692 10692 10692 10691 10691 10691 10692 10693 10693 10693 10693 10693 10694 10695 10696 10696 10696 10697 10697 10698 10698 10698 10699 10699 10699
10759 10759 10759 10759 10758 10757 10756 10755 10754 10753 10751 10750 10749 10747 10746 10744 10742 10740 10738 10737 10736 10735 10734 10733 10731 10729 10726 10723 10720 10718 10715 10712 10708 10706 10705 10702 10699 10697 10696 10695 10693 10693 10692 10691 10689 10688 10686 10685 10685 10684 10684 10684 10683 10683 10683 10683 10684 10684 10684 10685 10685 10686 10686 10685 10685 10686 10687 10688 10689 10689 10690 10689 10689 10690 10691 10692 10692 10693 10694 10694 10695 10695 10695 10696 10696
10756 10756 10756 10756 10755 10754 10753 10751 10750 10749 10748 10746 10745 10743 10742 10740 10738 10736 10734 10733 10732 10731 10730 10730 10728 10726 10724 10721 10719 10716 10713 10710 10705 10701 10700 10700 10696 10692 10690 10690 10688 10687 10687 10686 10684 10683 10681 10680 10679 10679 10679 10678 10678 10677 10677 10677 10678 10678 10678 10679 10679 10679 10680 10680 10680 10680 10682 10684 10684 10684 10685 10685 10685 10686 10686 10687 10688 10689 10690 10691 10691 10692 10692 10693 10693
10753 10752 10752 10752 10751 10750 10749 10747 10746 10745 10744 10743 10741 10739 10738 10736 10734 10733 10731 10729 10727 10726 10726 10725 10724 10723 10721 10718 10716 10714 10711 10708 10704 10699 10694 10693 10693 10690 10686 10684 10683 10682 10681 10680 10679 10678 10677 10675 10674 10674 10673 10673 10672 10672 10671 10671 10671 10672 10673 10673 10674 10674 10674 10675 10675 10676 10677 10679 10680 10679 10680 10681 10681 10681 10682 10683 10684 10685 10686 10687 10688 10688 10689 10689 10690
10749 10749 10748 10748 10748 10747 10745 10743 10742 10741 10740 10739 10737 10736 10734 10732 10730 10729 10727 10725 10723 10722 10720 10719 10719 10718 10717 10715 10713 10711 10708 10705 10702 10699 10693 10687 10685 10685 10684 10680 10677 10677 10675 10674 10673 10672 10671 10670 10669 10669 10668 10666 10666 10666 10666 10666 10666 10667 10668 10668 10669 10669 10670 10670 10670 10671 10672 10673 10674 10675 10675 10675 10676 10677 10677 10678 10679 10681 10682 10683 10684 10684 10685 10685 10686
10745 10745 10745 10745 10744 10743 10741 10740 10738 10737 10736 10735 10733 10732 10730 10728 10726 10724 10723 10722 10719 10718 10716 10714 10712 10711 10709 10708 10707 10705 10703 10701 10698 10696 10693 10687 10680 10677 10677 10675 10672 10671 10671 10668 10667 10666 10665 10664 10664 10663 10662 10661 10660 10660 10660 10661 10662 10662 10663 10663 10664 10665 10665 10665 10665 10666 10667 10668 10669 10670 10670 10670 10671 10672 10672 10673 10674 10675 10677 10678 10679 10680 10681 10681 10682
10742 10742 10742 10741 10740 10739 10737 10736 10735 10733 10732 10731 10729 10728 10726 10725 10722 10721 10719 10717 10715 10714 10712 10710 10708 10705 10703 10701 10700 10698 10696 10695 10693 10691 10688 10685 10680 10674 10671 10670 10666 10664 10664 10663 10661 10659 10658 10657 10657 10656 10656 10655 10654 10654 10655 10657 10658 10658 10658 10657 10657 10659 10660 10661 10661 10661 10662 10663 10664 10665 10666 10666 10666 10666 10667 10668 10669 10670 10672 10673 10674 10676 10677 10677 10678
10740 10740 10739 10738 10737 10735 10734 10732 10730 10729 10728 10726 10725 10723 10722 10720 10718 10716 10714 10712 10711 10709 10707 10705 10703 10701 10699 10696 10694 10692 10689 10687 10685 10684 10682 10679 10676 10672 10668 10666 10662 10658 10657 10656 10654 10653 10652 10651 10650 10649 10649 10648 10647 10648 10650 10652 10652 10650 10649 10649 10650 10651 10653 10654 10655 10655 10656 10658 10660 10660 10659 10659 10660 10660 10662 10663 10664 10666 10667 10668 10669 10671 10672 10673 10674
10737 10736 10735 10734 10732 10731 10729 10727 10725 10724 10723 10721 10720 10718 10716 10715 10713 10711 10709 10707 10705 10703 10702 10700 10698 10696 10693 10691 10689 10687 10684 10681 10679 10676 10674 10672 10670 10667 10663 10660 10657 10653 10651 10650 10647 10646 10645 10645 10644 10642 10641 10640 10640 10641 10643 10643 10643 10642 10641 10642 10644 10644 10643 10645 10647 10648 10650 10652 10655 10654 10652 10652 10653 10654 10656 10658 10659 10660 10661 10663 10664 10665 10667 10669 10670
10733 10732 10730 10729 10727 10725 10724 10722 10720 10719 10718 10716 10715 10713 10711 10709 10708 10706 10703 10701 10699 10698 10696 10693 10691 10689 10686 10684 10683 10680 10678 10676 10673 10670 10667 10665 10663 10661 10657 10654 10651 10647 10644 10642 10640 10638 10637 10638 10638 10636 10635 10634 10633 10634 10635 10635 10635 10636 10636 10636 10637 10635 10633 10634 10637 10640 10642 10645 10647 10646 10645 10646 10646 10647 10650 10652 10653 10654 10655 10657 10658 10660 10662 10664 10666
10728 10727 10725 10723 10721 10720 10718 10717 10715 10714 10713 10711 10709 10707 10705 10704 10702 10700 10697 10695 10693 10691 10689 10687 10684 10682 10679 10676 10674 10672 10670 10667 10665 10663 10660 10658 10656 10655 10652 10648 10645 10642 10638 10635 10632 10630 10629 10629 10629 10630 10629 10627 10626 10626 10626 10626 10627 10628 10630 10630 10628 10627 10627 10627 10629 10631 10633 10636 10639 10638 10638 10640 10640 10641 10643 10645 10647 10648 10649 10651 10653 10654 10656 10658 10660
10723 10721 10719 10718 10716 10715 10713 10712 10710 10709 10707 10705 10703 10701 10699 10697 10696 10694 10692 10689 10687 10685 10682 10679 10677 10674 10671 10668 10666 10663 10661 10658 10656 10654 10652 10650 10648 10647 10646 10643 10639 10635 10632 10628 10624 10622 10622 10621 10619 10620 10622 10621 10620 10619 10618 10618 10618 10619 10620 10621 10621 10620 10621 10621 10622 10623 10624 10627 10630 10631 10632 10633 10633 10635 10637 10638 10641 10642 10643 10645 10648 10649 10650 10653 10654
10717 10716 10714 10712 10711 10709 10708 10706 10705 10703 10701 10699 10697 10695 10693 10691 10690 10688 10686 10683 10680 10678 10675 10672 10669 10666 10663 10661 10658 10656 10652 10650 10647 10644 10642 10641 10639 10638 10637 10636 10633 10629 10625 10620 10615 10613 10615 10614 10611 10610 10613 10614 10613 10611 10611 10610 10610 10611 10612 10612 10612 10612 10613 10614 10614 10615 10616 10618 10621 10624 10625 10625 10626 10628 10630 10631 10633 10635 10636 10639 10642 10643 10645 10647 10648
10712 10710 10708 10707 10705 10704 10702 10700 10699 10696 10695 10693 10691 10689 10687 10685 10683 10681 10678 10676 10673 10670 10667 10665 10662 10658 10655 10652 10650 10647 10644 10641 10638 10635 10633 10631 10629 10628 10627 10626 10626 10624 10620 10615 10608 10603 10604 10604 10602 10601 10602 10604 10605 10603 10603 10603 10602 10603 10603 10603 10603 10603 10605 10606 10607 10608 10609 10610 10613 10615 10617 10618 10619 10622 10624 10624 10626 10628 10630 10632 10635 10637 10640 10642 10643
10706 10704 10702 10701 10699 10698 10696 10694 10692 10690 10688 10686 10684 10683 10680 10678 10676 10674 10671 10668 10666 10663 10660 10657 10654 10651 10647 10644 10641 10638 10635 10632 10629 10626 10623 10621 10619 10618 10617 10616 10616 10616 10614 10611 10603 10596 10596 10595 10591 10591 10592 10592 10594 10594 10594 10594 10594 10594 10595 10595 10594 10595 10596 10598 10599 10601 10602 10603 10604 10606 10608 10610 10612 10614 10616 10616 10617 10620 10623 10625 10628 10631 10633 10635 10637
10700 10698 10696 10694 10692 10691 10689 10687 10685 10684 10682 10680 10678 10676 10673 10671 10669 10666 10664 10661 10658 10655 10652 10649 10646 10643 10640 10636 10633 10630 10626 10623 10620 10617 10614 10612 10609 10607 10606 10605 10605 10605 10605 10604 10599 10590 10589 10589 10584 10580 10582 10582 10581 10582 10584 10584 10585 10586 10586 10586 10586 10586 10587 10589 10590 10592 10594 10595 10596 10598 10600 10602 10603 10606 10607 10608 10610 10613 10615 10617 10621 10624 10626 10629 10632
10693 10691 10689 10688 10686 10684 10682 10681 10679 10677 10675 10673 10671 10669 10666 10664 10661 10659 10656 10654 10651 10648 10645 10641 10638 10635 10632 10628 10625 10621 10618 10614 10611 10608 10605 10602 10600 10598 10596 10594 10594 10594 10594 10594 10593 10585 10579 10580 10579 10573 10571 10573 10571 10570 10572 10572 10573 10576 10578 10577 10576 10577 10578 10580 10580 10582 10584 10586 10587 10589 10592 10594 10595 10597 10599 10600 10602 10605 10607 10610 10614 10616 10619 10622 10626
10687 10685 10683 10681 10680 10678 10676 10675 10673 10671 10669 10667 10664 10662 10659 10656 10654 10652 10649 10646 10643 10640 10637 10634 10631 10627 10624 10620 10617 10613 10609 10605 10602 10599 10596 10593 10590 10588 10586 10584 10582 10582 10582 10582 10582 10579 10571 10568 10569 10566 10562 10563 10562 10559 10560 10562 10562 10564 10567 10567 10567 10568 10569 10570 10571 10572 10574 10576 10578 10581 10583 10584 10587 10588 10590 10592 10594 10597 10600 10603 10606 10609 10612 10616 10618
10680 10678 10677 10675 10673 10672 10670 10669 10667 10665 10663 10660 10657 10654 10652 10649 10647 10644 10642 10639 10635 10632 10629 10626 10623 10620 10616 10613 10609 10605 10601 10597 10594 10591 10588 10585 10582 10579 10576 10574 10572 10570 10570 10569 10569 10569 10564 10557 10555 10556 10553 10552 10552 10550 10550 10552 10551 10551 10554 10556 10557 10558 10559 10560 10562 10563 10564 10566 10569 10572 10573 10575 10577 10579 10581 10583 10585 10588 10592 10595 10598 10601 10604 10608 10611
10674 10672 10671 10669 10667 10666 10664 10663 10661 10658 10656 10653 10650 10647 10645 10643 10640 10637 10634 10631 10628 10625 10622 10619 10616 10612 10609 10605 10601 10597 10593 10589 10585 10582 10579 10576 10573 10570 10567 10564 10562 10559 10558 10557 10556 10556 10555 10549 10543 10542 10542 10540 10539 10538 10539 10542 10542 10540 10540 10542 10545 10548 10549 10550 10552 10554 10555 10555 10558 10561 10564 10565 10567 10570 10572 10574 10576 10579 10583 10587 10590 10593 10596 10600 10604
10668 10667 10666 10664 10662 10660 10658 10656 10653 10651 10648 10646 10643 10640 10638 10636 10633 10630 10627 10623 10620 10617 10614 10611 10608 10604 10601 10597 10593 10589 10585 10581 10577 10573 10570 10567 10563 10560 10557 10553 10551 10548 10545 10544 10544 10543 10543 10540 10534 10530 10529 10528 10527 10525 10526 10529 10530 10530 10529 10530 10532 10535 10538 10539 10541 10543 10544 10545 10547 10551 10553 10555 10558 10560 10563 10565 10568 10570 10574 10578 10582 10585 10588 10591 10595
10663 10661 10660 10657 10655 10653 10650 10648 10646 10644 10641 10638 10636 10633 10631 10628 10625 10622 10619 10616 10613 10610 10607 10603 10600 10597 10593 10589 10585 10582 10577 10573 10569 10564 10560 10557 10554 10550 10547 10544 10540 10537 10534 10531 10530 10529 10528 10528 10524 10519 10517 10516 10515 10513 10512 10515 10517 10517 10518 10519 10520 10521 10524 10526 10528 10531 10533 10535 10537 10539 10542 10546 10549 10551 10553 10556 10559 10562 10565 10569 10573 10577 10580 10582 10586
10657 10655 10652 10650 10648 10646 10644 10641 10639 10637 10634 10631 10628 10626 10623 10621 10618 10615 10612 10609 10606 10602 10599 10595 10592 10589 10585 10581 10577 10573 10570 10565 10561 10557 10552 10549 10546 10542 10538 10534 10530 10526 10523 10520 10517 10515 10514 10513 10511 10508 10505 10503 10503 10501 10499 10500 10503 10504 10505 10506 10507 10508 10510 10512 10515 10518 10521 10523 10525 10528 10532 10536 10539 10541 10544 10547 10551 10553 10556 10560 10564 10569 10572 10575 10578
10650 10648 10646 10644 10642 10640 10637 10635 10633 10630 10627 10624 10621 10618 10616 10614 10611 10608 10605 10602 10598 10595 10591 10588 10584 10580 10576 10572 10569 10564 10561 10557 10553 10549 10545 10540 10536 10532 10528 10524 10519 10515 10512 10508 10505 10503 10500 10498 10496 10494 10492 10489 10488 10489 10487 10486 10488 10490 10491 10493 10494 10493 10496 10500 10501 10503 10507 10511 10514 10517 10521 10524 10528 10532 10535 10538 10541 10545 10548 10552 10556 10560 10564 10567 10570
10643 10642 10640 10638 10636 10634 10631 10629 10626 10623 10620 10618 10614 10611 10608 10606 10603 10601 10597 10594 10590 10587 10583 10579 10575 10571 10566 10562 10559 10555 10551 10548 10544 10539 10535 10530 10525 10521 10517 10512 10508 10504 10500 10497 10493 10490 10488 10485 10483 10480 10478 10475 10473 10474 10474 10473 10474 10475 10477 10480 10482 10480 10480 10486 10489 10489 10492 10498 10502 10506 10509 10513 10518 10523 10525 10529 10533 10537 10540 10543 10547 10551 10555 10558 10562
10637 10636 10634 10632 10630 10628 10625 10622 10620 10617 10614 10611 10607 10604 10601 10598 10595 10592 10589 10586 10582 10578 10574 10570 10565 10561 10556 10552 10548 10544 10540 10536 10531 10527 10523 10519 10515 10510 10506 10502 10497 10493 10489 10485 10482 10478 10475 10472 10469 10466 10464 10461 10458 10458 10459 10459 10460 10461 10462 10466 10470 10469 10467 10470 10474 10475 10479 10484 10489 10494 10498 10501 10507 10512 10516 10521 10523 10526 10530 10534 10537 10541 10545 10549 10554
10631 10629 10628 10626 10624 10622 10619 10616 10613 10610 10607 10604 10601 10597 10594 10590 10587 10584 10580 10577 10573 10569 10564 10560 10556 10551 10547 10542 10537 10532 10527 10522 10518 10513 10509 10505 10501 10498 10494 10491 10487 10483 10479 10475 10470 10467 10463 10459 10456 10453 10450 10447 10444 10443 10444 10444 10445 10447 10448 10450 10455 10457 10456 10458 10459 10460 10464 10471 10477 10483 10487 10490 10496 10502 10507 10511 10514 10516 10521 10525 10527 10531 10535 10540 10546
10625 10623 10622 10620 10618 10615 10613 10610 10607 10604 10601 10597 10594 10591 10587 10583 10579 10575 10572 10568 10564 10560 10555 10551 10547 10542 10537 10532 10526 10521 10516 10511 10505 10500 10496 10491 10487 10483 10480 10477 10474 10471 10468 10464 10460 10456 10452 10448 10443 10440 10437 10434 10430 10428 10428 10428 10429 10431 10434 10436 10439 10442 10444 10447 10447 10444 10447 10457 10467 10472 10477 10480 10485 10492 10498 10502 10505 10508 10512 10515 10518 10523 10528 10532 10538
10619 10618 10616 10614 10612 10610 10607 10604 10601 10597 10594 10591 10587 10584 10580 10575 10571 10567 10563 10559 10555 10551 10547 10542 10537 10532 10527 10522 10517 10511 10506 10500 10495 10489 10484 10479 10474 10470 10465 10461 10458 10455 10452 10449 10446 10443 10439 10435 10431 10426 10423 10421 10418 10414 10412 10412 10413 10414 10417 10420 10423 10426 10429 10433 10436 10432 10430 10442 10457 10464 10466 10468 10474 10482 10488 10492 10496 10498 10503 10507 10511 10516 10520 10524 10529
10614 10613 10611 10608 10606 10603 10600 10597 10594 10591 10588 10584 10580 10577 10572 10568 10564 10559 10555 10551 10547 10542 10537 10532 10527 10522 10517 10512 10507 10502 10497 10491 10485 10479 10473 10468 10463 10458 10453 10448 10443 10439 10435 10431 10428 10425 10423 10421 10418 10414 10411 10408 10405 10401 10397 10397 10398 10398 10400 10403 10405 10410 10413 10417 10423 10421 10416 10427 10446 10455 10455 10457 10464 10472 10478 10482 10486 10489 10494 10499 10504 10508 10513 10516 10520
10609 10607 10605 10602 10600 10597 10594 10591 10588 10584 10581 10577 10573 10569 10565 10561 10556 10551 10546 10542 10537 10532 10527 10522 10518 10514 10509 10504 10498 10492 10487 10481 10475 10469 10463 10458 10453 10447 10442 10436 10430 10425 10421 10416 10412 10409 10406 10404 10403 10400 10398 10396 10393 10389 10385 10384 10385 10385 10386 10387 10389 10394 10399 10403 10410 10411 10406 10414 10435 10447 10447 10447 10453 10462 10467 10471 10476 10482 10486 10491 10496 10501 10505 10508 10511
10603 10601 10598 10596 10593 10590 10587 10584 10580 10577 10573 10569 10565 10561 10557 10553 10548 10543 10538 10533 10528 10523 10519 10514 10509 10505 10500 10495 10489 10483 10477 10472 10466 10460 10454 10448 10442 10437 10431 10425 10419 10413 10408 10404 10401 10398 10394 10391 10389 10386 10385 10383 10380 10378 10374 10372 10373 10372 10372 10373 10376 10380 10385 10390 10396 10400 10397 10404 10423 10438 10438 10436 10443 10453 10457 10461 10468 10474 10478 10484 10488 10492 10496 10499 10503
10597 10594 10592 10589 10586 10583 10580 10576 10573 10569 10565 10561 10557 10553 10549 10544 10540 10535 10530 10525 10520 10515 10511 10507 10502 10496 10491 10486 10480 10475 10469 10463 10457 10451 10445 10439 10433 10427 10421 10415 10409 10402 10397 10393 10390 10387 10384 10381 10379 10375 10373 10372 10369 10366 10363 10361 10360 10360 10360 10363 10365 10369 10373 10378 10383 10388 10388 10395 10412 10428 10430 10427 10435 10444 10446 10450 10460 10467 10472 10477 10480 10483 10488 10491 10494
10590 10588 10585 10582 10579 10576 10572 10568 10565 10561 10557 10553 10549 10545 10541 10537 10532 10527 10522 10517 10513 10508 10503 10499 10494 10488 10483 10477 10471 10466 10460 10455 10449 10443 10437 10430 10423 10417 10411 10405 10399 10393 10387 10382 10378 10376 10373 10371 10369 10366 10364 10363 10360 10356 10353 10351 10349 10349 10350 10353 10357 10360 10363 10366 10370 10375 10380 10387 10403 10418 10419 10416 10423 10432 10435 10443 10453 10459 10463 10467 10469 10473 10478 10481 10485
10583 10581 10578 10575 10572 10569 10565 10561 10558 10554 10550 10546 10542 10538 10534 10529 10524 10519 10515 10510 10505 10501 10496 10491 10485 10480 10474 10469 10463 10458 10452 10446 10441 10434 10428 10421 10415 10409 10402 10396 10391 10385 10379 10373 10369 10365 10362 10360 10358 10356 10354 10353 10351 10348 10346 10343 10341 10340 10341 10344 10348 10351 10353 10355 10358 10364 10371 10379 10392 10404 10405 10403 10411 10421 10427 10435 10443 10446 10449 10454 10459 10464 10469 10472 10476
10577 10575 10572 10569 10565 10562 10559 10555 10551 10547 10543 10539 10535 10530 10526 10521 10517 10512 10508 10503 10498 10493 10488 10483 10477 10472 10466 10461 10455 10449 10443 10438 10432 10425 10419 10413 10406 10401 10395 10389 10383 10378 10372 10367 10363 10359 10355 10351 10349 10347 10345 10343 10341 10340 10339 10337 10335 10334 10335 10337 10339 10342 10344 10345 10349 10357 10363 10370 10380 10389 10391 10392 10402 10413 10420 10426 10431 10434 10439 10445 10451 10456 10460 10463 10467